Location: Casilda
(33.0440°S, 61.1680°W)
Time: 08:57:38
(UTC-03:00)

ISS - Pass Details

Date: 14 October 2021
Orbit: 417 x 423 km, 51.6° (Epoch: 18 October)

Event Time Altitude Azimuth Distance (km) Brightness Sun altitude
Rises 19:39:52 0° 355° (N) 2,358 0.0 -5.5°
Reaches altitude 10° 19:42:46 10° 23° (NNE) 1,506 -1.3 -6.1°
Maximum altitude 19:44:31 14° 54° (NE) 1,316 -1.8 -6.5°
Drops below altitude 10° 19:46:16 10° 85° (E) 1,519 -1.6 -6.8°
Enters shadow 19:46:56 - 94° (E) 1,679 -1.3 -7.0°
